Retour au catalogue

HUBBLE 6

ActifScienceSSO
NORAD 64562·PAYLOAD·🇺🇸 United States

Lancé Jun 23, 2025 depuis Vandenberg Space Force Base

Loading…

Prochains Passages (prochaines 24 heures)

TLE

FraisSource: Space-Track

Époque: Sep 14, 2026, 13:16 UTC

1 64562U 25135AL  26257.55334106  .00001121  00000-0  11129-3 0  9990
2 64562  97.7820  10.7941 0001560 103.3671 256.7723 14.93712974 67218

Suivez HUBBLE 6 en temps réel avec AllMySat

Download on the App Store